This is the latest recevied weather packets stored in our database for station/object KI6SYE. If no packets are shown the sender has not sent any weather packets the latest 1 day(s).
| Time | Temp. | Humidity | Pressure | Rain* | Wind** | Luminosity | Snow |
|---|---|---|---|---|---|---|---|
| 1777982483 | 13.89° C | 84% | 1013.4 hPa | 0 mm | 2.24 m/s, 313° | 0 W/m² | - |
| 1777982177 | 13.89° C | 84% | 1013.3 hPa | 0 mm | 1.34 m/s, 348° | 0 W/m² | - |
| 1777981875 | 13.89° C | 84% | 1013.4 hPa | 0 mm | 2.24 m/s, 265° | 0 W/m² | - |
| 1777981572 | 13.89° C | 83% | 1013.4 hPa | 0 mm | 2.24 m/s, 293° | 0 W/m² | - |
| 1777981269 | 13.89° C | 82% | 1013.3 hPa | 0 mm | 1.34 m/s, 2° | 0 W/m² | - |
| 1777980965 | 13.89° C | 82% | 1013.4 hPa | 0 mm | 0.89 m/s, 5° | 0 W/m² | - |
| 1777980662 | 13.89° C | 82% | 1013.3 hPa | 0 mm | 2.24 m/s, 281° | 0 W/m² | - |
| 1777980358 | 14.44° C | 82% | 1013.5 hPa | 0 mm | 0.89 m/s, 311° | 0 W/m² | - |
| 1777980056 | 13.89° C | 82% | 1013.5 hPa | 0 mm | 1.79 m/s, 349° | 0 W/m² | - |
| 1777979749 | 13.89° C | 83% | 1013.3 hPa | 0 mm | 0.89 m/s, 296° | 0 W/m² | - |
| 1777979446 | 14.44° C | 83% | 1013.5 hPa | 0 mm | 1.79 m/s, 299° | 0 W/m² | - |
| 1777979142 | 14.44° C | 83% | 1013.5 hPa | 0 mm | 1.34 m/s, 265° | 0 W/m² | - |
| 1777978839 | 14.44° C | 84% | 1013.4 hPa | 0 mm | 1.34 m/s, 264° | 0 W/m² | - |
| 1777978536 | 14.44° C | 84% | 1013.4 hPa | 0 mm | 0.89 m/s, 291° | 0 W/m² | - |
| 1777978231 | 14.44° C | 84% | 1013.5 hPa | 0 mm | 2.24 m/s, 33° | 0 W/m² | - |
| 1777977930 | 14.44° C | 83% | 1013.3 hPa | 0 mm | 1.34 m/s, 297° | 0 W/m² | - |
| 1777977627 | 13.89° C | 83% | 1013.2 hPa | 0 mm | 1.79 m/s, 297° | 0 W/m² | - |
| 1777977323 | 13.89° C | 81% | 1013.7 hPa | 0 mm | 1.34 m/s, 291° | 0 W/m² | - |
| 1777977021 | 13.89° C | 81% | 1013.4 hPa | 0 mm | 0.89 m/s, 249° | 0 W/m² | - |
| 1777976718 | 13.89° C | 83% | 1013.5 hPa | 0 mm | 1.34 m/s, 304° | 0 W/m² | - |
| 1777976415 | 13.89° C | 84% | 1013.5 hPa | 0 mm | 1.34 m/s, 308° | 0 W/m² | - |
| 1777976114 | 13.89° C | 85% | 1013.3 hPa | 0 mm | 0.89 m/s, 305° | 0 W/m² | - |
| 1777975809 | 13.89° C | 84% | 1013.7 hPa | 0 mm | 1.34 m/s, 320° | 0 W/m² | - |
| 1777975507 | 13.89° C | 82% | 1013.5 hPa | 0 mm | 0.89 m/s, 286° | 0 W/m² | - |
| 1777975203 | 13.89° C | 80% | 1013.6 hPa | 0 mm | 1.79 m/s, 260° | 0 W/m² | - |
* Rain latest hour (hover to see other rain measurements)
** Current wind speed in m/s (hover to see current wind gust speed)